Meteo pe oră la Bolshoe Babino

Astăzi, 18 Mai, Marţi

Timp Temperatura Precipitaţii Vânt Presiune Umiditate
00:00 +14°C° 0.6 mm 2 m/s 735 mmHg 97%
01:00 +14°C° 0.6 mm 2 m/s 735 mmHg 97%
02:00 +14°C° 0.6 mm 3 m/s 735 mmHg 97%
03:00 +14°C° 0 mm 3 m/s 735 mmHg 97%
04:00 +14°C° 0 mm 4 m/s 735 mmHg 98%
05:00 +15°C° 0 mm 4 m/s 735 mmHg 98%
06:00 +15°C° 0 mm 4 m/s 735 mmHg 95%
07:00 +15°C° 0 mm 4 m/s 736 mmHg 93%
08:00 +15°C° 0 mm 4 m/s 736 mmHg 91%
09:00 +17°C° 0 mm 4 m/s 736 mmHg 89%
10:00 +17°C° 0 mm 4 m/s 736 mmHg 86%
11:00 +18°C° 0 mm 4 m/s 737 mmHg 84%
12:00 +19°C° 0.1 mm 4 m/s 737 mmHg 80%
13:00 +19°C° 0.1 mm 4 m/s 736 mmHg 76%
14:00 +20°C° 0.1 mm 4 m/s 736 mmHg 72%
15:00 +19°C° 0.9 mm 3 m/s 736 mmHg 77%
16:00 +19°C° 0.9 mm 3 m/s 736 mmHg 83%
17:00 +18°C° 0.9 mm 3 m/s 735 mmHg 88%
18:00 +17°C° 0.4 mm 2 m/s 735 mmHg 90%
19:00 +16°C° 0.4 mm 2 m/s 735 mmHg 92%
20:00 +16°C° 0.4 mm 1 m/s 735 mmHg 93%
21:00 +15°C° 0.5 mm 2 m/s 735 mmHg 94%
22:00 +15°C° 0.5 mm 2 m/s 735 mmHg 95%
23:00 +15°C° 0.5 mm 2 m/s 735 mmHg 96%

Mâine, 19 Mai, Miercuri

Timp Temperatura Precipitaţii Vânt Presiune Umiditate
00:00 +15°C° 0.2 mm 2 m/s 735 mmHg 96%
01:00 +15°C° 0.2 mm 2 m/s 735 mmHg 97%
02:00 +14°C° 0.2 mm 2 m/s 735 mmHg 97%
03:00 +14°C° 0 mm 2 m/s 735 mmHg 97%
04:00 +14°C° 0 mm 2 m/s 735 mmHg 97%
05:00 +13°C° 0 mm 2 m/s 735 mmHg 98%
06:00 +14°C° 0 mm 2 m/s 735 mmHg 95%
07:00 +14°C° 0 mm 3 m/s 736 mmHg 92%
08:00 +16°C° 0 mm 3 m/s 736 mmHg 90%
09:00 +17°C° 0.2 mm 4 m/s 736 mmHg 86%
10:00 +17°C° 0.2 mm 4 m/s 736 mmHg 82%
11:00 +18°C° 0.2 mm 4 m/s 736 mmHg 79%
12:00 +18°C° 0.3 mm 4 m/s 737 mmHg 79%
13:00 +18°C° 0.3 mm 3 m/s 737 mmHg 78%
14:00 +18°C° 0.3 mm 3 m/s 737 mmHg 78%
15:00 +18°C° 0.4 mm 3 m/s 737 mmHg 81%
16:00 +17°C° 0.4 mm 3 m/s 737 mmHg 84%
17:00 +17°C° 0.4 mm 3 m/s 738 mmHg 87%
18:00 +16°C° 0.5 mm 3 m/s 738 mmHg 90%
19:00 +14°C° 0.5 mm 3 m/s 738 mmHg 93%
20:00 +12°C° 0.5 mm 4 m/s 738 mmHg 95%
21:00 +12°C° 0.7 mm 3 m/s 738 mmHg 96%
22:00 +12°C° 0.7 mm 3 m/s 738 mmHg 97%
23:00 +11°C° 0.7 mm 3 m/s 738 mmHg 98%

Poimâine, 20 Mai, Joi

Timp Temperatura Precipitaţii Vânt Presiune Umiditate
00:00 +11°C° 1.2 mm 4 m/s 737 mmHg 98%
01:00 +11°C° 1.2 mm 4 m/s 737 mmHg 98%
02:00 +11°C° 1.2 mm 4 m/s 737 mmHg 98%
03:00 +11°C° 2.1 mm 4 m/s 736 mmHg 98%
04:00 +10°C° 2.1 mm 5 m/s 736 mmHg 98%
05:00 +10°C° 2.1 mm 5 m/s 736 mmHg 98%
06:00 +10°C° 0.9 mm 5 m/s 735 mmHg 98%
07:00 +10°C° 0.9 mm 5 m/s 735 mmHg 97%
08:00 +10°C° 0.9 mm 5 m/s 735 mmHg 97%
09:00 +9°C° 0.9 mm 6 m/s 735 mmHg 97%
10:00 +9°C° 0.9 mm 6 m/s 735 mmHg 96%
11:00 +9°C° 0.9 mm 6 m/s 734 mmHg 96%
12:00 +9°C° 1.5 mm 6 m/s 734 mmHg 96%
13:00 +8°C° 1.5 mm 6 m/s 734 mmHg 96%
14:00 +8°C° 1.5 mm 6 m/s 734 mmHg 96%
15:00 +8°C° 1.4 mm 6 m/s 735 mmHg 96%
16:00 +6°C° 1.4 mm 7 m/s 735 mmHg 96%
17:00 +6°C° 1.4 mm 7 m/s 735 mmHg 95%
18:00 +6°C° 0.8 mm 8 m/s 735 mmHg 95%
19:00 +6°C° 0.8 mm 8 m/s 736 mmHg 95%
20:00 +6°C° 0.8 mm 8 m/s 736 mmHg 95%
21:00 +6°C° 0.5 mm 8 m/s 736 mmHg 94%
22:00 +6°C° 0.5 mm 8 m/s 737 mmHg 94%
23:00 +6°C° 0.5 mm 9 m/s 737 mmHg 93%

21 Mai, Vineri

Timp Temperatura Precipitaţii Vânt Presiune Umiditate
00:00 +6°C° 0.5 mm 8 m/s 738 mmHg 94%
01:00 +6°C° 0.5 mm 7 m/s 738 mmHg 94%
02:00 +6°C° 0.5 mm 7 m/s 739 mmHg 94%
03:00 +6°C° 0.1 mm 7 m/s 739 mmHg 93%
04:00 +6°C° 0.1 mm 7 m/s 740 mmHg 92%
05:00 +5°C° 0.1 mm 7 m/s 741 mmHg 91%
06:00 +6°C° 0 mm 7 m/s 741 mmHg 88%
07:00 +8°C° 0 mm 6 m/s 742 mmHg 84%
08:00 +9°C° 0 mm 6 m/s 742 mmHg 81%
09:00 +10°C° 0 mm 6 m/s 743 mmHg 73%
10:00 +11°C° 0 mm 6 m/s 743 mmHg 66%
11:00 +14°C° 0 mm 6 m/s 744 mmHg 58%
12:00 +14°C° 0 mm 6 m/s 744 mmHg 57%
13:00 +15°C° 0 mm 5 m/s 744 mmHg 55%
14:00 +15°C° 0 mm 5 m/s 745 mmHg 54%
15:00 +15°C° 0 mm 5 m/s 745 mmHg 56%
16:00 +15°C° 0 mm 4 m/s 745 mmHg 59%
17:00 +15°C° 0 mm 4 m/s 745 mmHg 62%
18:00 +13°C° 0 mm 3 m/s 745 mmHg 68%
19:00 +12°C° 0 mm 3 m/s 746 mmHg 74%
20:00 +10°C° 0 mm 3 m/s 746 mmHg 80%
21:00 +9°C° 0 mm 2 m/s 746 mmHg 82%
22:00 +8°C° 0 mm 2 m/s 747 mmHg 84%
23:00 +7°C° 0 mm 2 m/s 747 mmHg 86%

22 Mai, Sâmbătă

Timp Temperatura Precipitaţii Vânt Presiune Umiditate
00:00 +6°C° 0 mm 2 m/s 747 mmHg 86%
01:00 +7°C° 0 mm 1 m/s 747 mmHg 85%
02:00 +7°C° 0 mm 1 m/s 748 mmHg 85%
03:00 +7°C° 0 mm 1 m/s 748 mmHg 84%
04:00 +6°C° 0 mm 0 m/s 748 mmHg 82%
05:00 +7°C° 0 mm 0 m/s 748 mmHg 81%
06:00 +8°C° 0 mm 0 m/s 748 mmHg 75%
07:00 +11°C° 0 mm 1 m/s 748 mmHg 69%
08:00 +13°C° 0 mm 1 m/s 748 mmHg 63%
09:00 +14°C° 0 mm 2 m/s 748 mmHg 60%
10:00 +16°C° 0 mm 2 m/s 748 mmHg 58%
11:00 +17°C° 0 mm 3 m/s 748 mmHg 55%
12:00 +17°C° 0 mm 3 m/s 747 mmHg 54%
13:00 +18°C° 0 mm 3 m/s 747 mmHg 53%
14:00 +18°C° 0 mm 3 m/s 747 mmHg 52%
15:00 +18°C° 0 mm 3 m/s 747 mmHg 55%
16:00 +18°C° 0 mm 3 m/s 747 mmHg 58%
17:00 +18°C° 0 mm 2 m/s 746 mmHg 61%
18:00 +16°C° 0 mm 2 m/s 746 mmHg 67%
19:00 +15°C° 0 mm 2 m/s 746 mmHg 73%
20:00 +13°C° 0 mm 2 m/s 746 mmHg 79%
21:00 +12°C° 0 mm 2 m/s 746 mmHg 81%
22:00 +10°C° 0 mm 2 m/s 746 mmHg 83%
23:00 +10°C° 0 mm 2 m/s 746 mmHg 85%

23 Mai, Duminică

Timp Temperatura Precipitaţii Vânt Presiune Umiditate
00:00 +9°C° 0 mm 2 m/s 745 mmHg 88%
01:00 +9°C° 0 mm 3 m/s 745 mmHg 90%
02:00 +9°C° 0 mm 3 m/s 745 mmHg 92%
03:00 +9°C° 0 mm 3 m/s 745 mmHg 92%
04:00 +9°C° 0 mm 3 m/s 744 mmHg 92%
05:00 +10°C° 0 mm 2 m/s 744 mmHg 92%
06:00 +11°C° 0 mm 3 m/s 744 mmHg 87%
07:00 +12°C° 0 mm 3 m/s 744 mmHg 83%
08:00 +14°C° 0 mm 4 m/s 743 mmHg 78%
09:00 +15°C° 0.1 mm 4 m/s 743 mmHg 75%
10:00 +17°C° 0.1 mm 4 m/s 742 mmHg 72%
11:00 +18°C° 0.1 mm 4 m/s 742 mmHg 69%
12:00 +15°C° 0.6 mm 5 m/s 742 mmHg 76%
13:00 +14°C° 0.6 mm 5 m/s 741 mmHg 83%
14:00 +13°C° 0.6 mm 5 m/s 741 mmHg 90%
15:00 +13°C° 0.6 mm 5 m/s 741 mmHg 89%
16:00 +13°C° 0.6 mm 6 m/s 741 mmHg 88%
17:00 +13°C° 0.6 mm 6 m/s 741 mmHg 87%
18:00 +13°C° 0.1 mm 5 m/s 742 mmHg 88%
19:00 +12°C° 0.1 mm 4 m/s 742 mmHg 89%
20:00 +11°C° 0.1 mm 4 m/s 743 mmHg 91%
21:00 +11°C° 0 mm 4 m/s 743 mmHg 91%
22:00 +10°C° 0 mm 4 m/s 744 mmHg 92%
23:00 +8°C° 0 mm 4 m/s 744 mmHg 92%
Arată mai mult

Formular de consimțământ

Meteoprog și furnizorii noștri de servicii pot stoca și accesa date personale, precum cookies, identificatori de dispozitiv sau alte tehnologii similare pe dispozitivul dumneavoastră și procesa astfel de date pentru a personaliza conținutul și reclamele, dar și pentru a oferi caracteristici de social media și pentru a analiza traficul.

  • Stocarea și/sau accesarea informațiilor pe dispozitivul dumneavoastră

    Cookies, identificatori de dispozitiv sau alte informații pot fi stocate sau accesate pe dispozitiv în scopurile indicate mai sus.

  • Reclame și conținut personalizat, evaluarea reclamelor și a conținutului, informații despre audiențe și dezvoltarea produselor

    Reclamele și conținutul pot fi personalizate pe baza unui profil. Pot fi adăugate date suplimentare pentru a personaliza mai bine reclamele și conținutul. Performanța reclamelor și conținutului poate fi măsurată. Pot fi obținute informații despre utilizatorii care au văzut reclamele și conținutul. Aceste date pot fi utilizate pentru a dezvolta sau îmbunătăți experiența utilizatorilor, sistemele și software-ul.

Dând clic pe ‘Sunt de acord’, permiteți utilizarea cookie-urilor menționate, a identificatorilor de dispozitiv, balizelor web sau altor tehnologii similare. Setările pot fi modificate din browser-ul dispozitivului dumneavoastră.

În anumite scopuri, interesele legitime pot prima asupra consimțământului. Puteți citi mai multe informații în acest sens în Politica privind Confidențialitatea Datelor și Cookie.